EW8805 Weather Reports


time (UTC)temp
C
wind
direction
speed
KPH
gust
KPH
rain 1hr
cm
rain 24hr
cm
rain mn
cm
humidity
%
barometer
mb
20260507123523 18 256 16.1 25.7 0.00 0.00 0.00 46 1009.5
20260507123031 18 235 16.1 24.1 0.00 0.00 0.00 44 1009.5
20260507122605 19 210 12.9 19.3 0.00 0.00 0.00 43 1009.6
20260507122025 19 203 9.7 17.7 0.00 0.00 0.00 42 1009.6
20260507121556 19 161 9.7 12.9 0.00 0.00 0.00 43 1009.6
20260507121047 18 198 1.6 12.9 0.00 0.00 0.00 44 1009.6
20260507120531 18 201 4.8 19.3 0.00 0.00 0.00 44 1009.8
20260507120103 18 108 8.0 22.5 0.00 0.00 0.00 45 1009.7
20260507115528 18 80 14.5 22.5 0.00 0.00 0.00 43 1009.8
20260507115032 18 109 9.7 16.1 0.00 0.00 0.00 44 1009.8
20260507114608 18 120 8.0 19.3 0.00 0.00 0.00 45 1009.9
20260507114021 18 103 12.9 19.3 0.00 0.00 0.00 46 1010.0
20260507113522 18 58 9.7 19.3 0.00 0.00 0.00 47 1010.0
20260507113030 17 97 11.3 19.3 0.00 0.00 0.00 49 1010.1
20260507112546 18 77 11.3 19.3 0.00 0.00 0.00 48 1010.2
20260507112023 18 103 12.9 17.7 0.00 0.00 0.00 47 1010.2
20260507111522 18 304 0.0 16.1 0.00 0.00 0.00 46 1010.1
20260507111027 18 297 1.6 6.4 0.00 0.00 0.00 45 1010.2
20260507110534 18 111 0.0 8.0 0.00 0.00 0.00 44 1010.1
20260507110056 18 224 4.8 9.7 0.00 0.00 0.00 44 1010.1
20260507105539 19 138 6.4 11.3 0.00 0.00 0.00 42 1010.1
20260507105040 19 158 4.8 11.3 0.00 0.00 0.00 43 1010.1
20260507104536 19 149 1.6 9.7 0.00 0.00 0.00 43 1010.1
20260507104034 18 243 3.2 14.5 0.00 0.00 0.00 43 1010.1
20260507103543 18 235 0.0 14.5 0.00 0.00 0.00 45 1010.2
20260507103028 18 159 1.6 14.5 0.00 0.00 0.00 43 1010.2
20260507102529 18 211 9.7 12.9 0.00 0.00 0.00 45 1010.2
20260507102043 18 262 4.8 14.5 0.00 0.00 0.00 47 1010.3
20260507101523 18 218 1.6 16.1 0.00 0.00 0.00 45 1010.3
20260507101023 18 281 9.7 16.1 0.00 0.00 0.00 49 1010.4
20260507100538 18 256 9.7 14.5 0.00 0.00 0.00 50 1010.5
20260507100127 17 262 4.8 14.5 0.00 0.00 0.00 52 1010.5
20260507095533 17 191 0.0 14.5 0.00 0.00 0.00 52 1010.5
20260507095035 17 255 9.7 14.5 0.00 0.00 0.00 54 1010.6
20260507094540 17 264 8.0 14.5 0.00 0.00 0.00 53 1010.6
20260507094022 17 264 6.4 14.5 0.00 0.00 0.00 54 1010.5
20260507093525 17 267 12.9 14.5 0.00 0.00 0.00 56 1010.4
20260507093044 16 259 3.2 14.5 0.00 0.00 0.00 57 1010.4
20260507092533 16 295 11.3 14.5 0.00 0.00 0.00 57 1010.4
20260507092029 17 280 8.0 14.5 0.00 0.00 0.00 55 1010.5
20260507091538 16 276 6.4 16.1 0.00 0.00 0.00 55 1010.4
20260507091040 16 262 12.9 20.9 0.00 0.00 0.00 54 1010.5
20260507090540 16 253 12.9 20.9 0.00 0.00 0.00 54 1010.5
20260507090101 16 250 4.8 14.5 0.00 0.00 0.00 55 1010.6
20260507085538 16 242 9.7 14.5 0.00 0.00 0.00 58 1010.5
20260507085025 16 239 8.0 16.1 0.00 0.00 0.00 61 1010.5
20260507084537 16 246 9.7 16.1 0.00 0.00 0.00 60 1010.5
20260507084042 16 245 9.7 12.9 0.00 0.00 0.00 61 1010.6
20260507083530 16 264 8.0 12.9 0.00 0.00 0.00 61 1010.6
20260507083042 16 288 3.2 9.7 0.00 0.00 0.00 61 1010.6
20260507082523 15 208 3.2 9.7 0.00 0.00 0.00 62 1010.6
20260507082033 15 210 0.0 4.8 0.00 0.00 0.00 65 1010.5
20260507081530 14 207 0.0 4.8 0.00 0.00 0.00 66 1010.6
20260507081027 13 248 1.6 4.8 0.00 0.00 0.00 64 1010.6
20260507080529 13 125 0.0 0.0 0.00 0.00 0.00 66 1010.4
20260507080058 13 122 0.0 0.0 0.00 0.00 0.00 68 1010.4
20260507075534 12 212 0.0 0.0 0.00 0.00 0.00 72 1010.5
20260507075019 12 221 0.0 4.8 0.00 0.00 0.00 73 1010.5
20260507074524 12 98 0.0 4.8 0.00 0.00 0.00 75 1010.3
20260507074028 12 90 0.0 6.4 0.00 0.00 0.00 76 1010.3
20260507073530 12 89 4.8 8.0 0.00 0.00 0.00 75 1010.3
20260507073044 12 70 3.2 8.0 0.00 0.00 0.00 78 1010.3
20260507072532 11 119 0.0 6.4 0.00 0.00 0.00 79 1010.1
20260507072028 11 75 3.2 6.4 0.00 0.00 0.00 80 1010.1
20260507071543 11 82 0.0 3.2 0.00 0.00 0.00 80 1010.0
20260507071030 11 102 0.0 1.6 0.00 0.00 0.00 81 1010.0
20260507070533 11 354 0.0 3.2 0.00 0.00 0.00 82 1010.0
20260507070107 11 56 0.0 3.2 0.00 0.00 0.00 81 1010.0
20260507065522 11 9 0.0 4.8 0.00 0.00 0.00 82 1009.9
20260507065034 11 351 0.0 4.8 0.00 0.00 0.00 82 1009.9
20260507064524 11 30 0.0 1.6 0.00 0.00 0.00 82 1009.8
20260507064053 10 39 0.0 1.6 0.00 0.00 0.00 84 1009.8
20260507063529 10 54 0.0 6.4 0.00 0.00 0.00 84 1009.8
20260507063020 10 53 0.0 6.4 0.00 0.00 0.00 84 1009.7
20260507062523 10 58 3.2 6.4 0.00 0.00 0.00 84 1009.7
20260507062022 10 110 0.0 3.2 0.00 0.00 0.00 83 1009.7
20260507061530 10 68 0.0 3.2 0.00 0.00 0.00 82 1009.7
20260507061028 10 94 0.0 1.6 0.00 0.00 0.00 83 1009.6
20260507060538 10 132 0.0 3.2 0.00 0.00 0.00 84 1009.5
20260507060128 10 100 0.0 3.2 0.00 0.00 0.00 85 1009.5
20260507055530 10 96 0.0 3.2 0.00 0.00 0.00 85 1009.5
20260507055056 -17 86 0.0 0.0 0.00 0.00 0.00 1009.4
20260507054538 -17 0.0 0.0 0.00 0.00 0.00 1009.4
20260507054043 -17 0.0 0.0 0.00 0.00 0.00 1009.4
20260507053520 -17 0.0 0.0 0.00 0.00 0.00 1009.4
20260507053034 -17 0.0 0.0 0.00 0.00 0.00 1009.3
20260507052524 -17 0.0 0.0 0.00 0.00 0.00 1009.2
20260507052021 -17 0.0 0.0 0.00 0.00 0.00 1009.2
20260507051603 -17 0.0 0.0 0.00 0.00 0.00 1009.1
20260507051040 -17 0.0 0.0 0.00 0.00 0.00 1009.2
20260507050542 -17 0.0 0.0 0.00 0.00 0.00 1009.0
20260507050044 -17 0.0 0.0 0.00 0.00 0.00 1009.0
20260507045521 -17 0.0 0.0 0.00 0.00 0.00 1009.0
20260507045024 -17 0.0 0.0 0.00 0.00 0.00 1008.9
20260507044542 -17 0.0 0.0 0.00 0.00 0.00 1009.0
20260507044041 10 68 6.4 6.4 0.00 0.00 0.00 76 1008.9
20260507043527 10 68 6.4 6.4 0.00 0.00 0.00 76 1008.9
20260507043019 10 89 3.2 6.4 0.00 0.00 0.00 76 1008.9
20260507042535 10 71 0.0 1.6 0.00 0.00 0.00 75 1008.9
20260507042041 10 82 0.0 4.8 0.00 0.00 0.00 74 1008.8
20260507041528 10 103 1.6 4.8 0.00 0.00 0.00 74 1008.8
20260507041053 10 100 1.6 6.4 0.00 0.00 0.00 74 1008.8
20260507040533 10 96 1.6 6.4 0.00 0.00 0.00 75 1008.9
20260507040050 10 92 1.6 3.2 0.00 0.00 0.00 75 1008.9
20260507035600 10 72 0.0 4.8 0.00 0.00 0.00 74 1008.9
20260507035035 10 77 1.6 4.8 0.00 0.00 0.00 74 1008.9
20260507034539 10 72 0.0 4.8 0.00 0.00 0.00 74 1008.9
20260507034046 10 25 0.0 0.0 0.00 0.00 0.00 73 1009.0
20260507033520 10 25 0.0 0.0 0.00 0.00 0.00 73 1009.0
20260507033040 10 25 0.0 6.4 0.00 0.00 0.00 73 1009.0
20260507032530 10 32 1.6 8.0 0.00 0.00 0.00 73 1009.0
20260507032027 10 46 4.8 9.7 0.00 0.00 0.00 72 1009.0
20260507031533 10 41 4.8 9.7 0.00 0.00 0.00 71 1009.0
20260507031032 10 46 4.8 8.0 0.00 0.00 0.00 70 1009.0
20260507030549 10 39 0.0 4.8 0.00 0.00 0.00 69 1009.1
20260507030127 10 47 0.0 6.4 0.00 0.00 0.00 67 1009.1
20260507025540 11 33 3.2 9.7 0.00 0.00 0.00 65 1009.1
20260507025040 11 39 8.0 9.7 0.00 0.00 0.00 62 1009.2
20260507024521 12 52 6.4 8.0 0.00 0.00 0.00 61 1009.1
20260507024030 12 65 1.6 4.8 0.00 0.00 0.00 60 1009.3
20260507023545 12 49 3.2 4.8 0.00 0.00 0.00 59 1009.4
20260507023058 12 146 0.0 0.0 0.00 0.00 0.00 58 1009.4
20260507022528 12 145 0.0 1.6 0.00 0.00 0.00 58 1009.4
20260507022053 12 120 0.0 1.6 0.00 0.00 0.00 60 1009.3
20260507021522 11 146 0.0 1.6 0.00 0.00 0.00 58 1009.3
20260507021100 11 167 0.0 0.0 0.00 0.00 0.00 58 1009.2
20260507020537 11 158 0.0 6.4 0.00 0.00 0.00 59 1009.3
20260507020126 11 172 1.6 6.4 0.00 0.00 0.00 60 1009.3
20260507015544 11 219 1.6 6.4 0.00 0.00 0.00 61 1009.3
20260507015057 11 222 0.0 1.6 0.00 0.00 0.00 62 1009.2
20260507014541 10 224 0.0 6.4 0.00 0.00 0.00 62 1009.2
20260507014042 10 245 1.6 6.4 0.00 0.00 0.00 63 1009.2
20260507013548 10 246 3.2 4.8 0.00 0.00 0.00 63 1009.1
20260507013030 10 242 0.0 3.2 0.00 0.00 0.00 62 1009.1
20260507012542 10 248 0.0 3.2 0.00 0.00 0.00 62 1009.1
20260507012030 10 248 0.0 3.2 0.00 0.00 0.00 62 1009.1
20260507011537 10 248 1.6 3.2 0.00 0.00 0.00 62 1009.1
20260507010531 10 240 0.0 1.6 0.00 0.00 0.00 62 1009.2
20260507010049 10 241 0.0 4.8 0.00 0.00 0.00 63 1009.2
20260507005539 10 257 1.6 4.8 0.00 0.00 0.00 62 1009.2
20260507005035 10 260 3.2 3.2 0.00 0.00 0.00 61 1009.2
20260507004530 10 260 0.0 3.2 0.00 0.00 0.00 60 1009.3
20260507004054 10 260 0.0 3.2 0.00 0.00 0.00 60 1009.3
20260507003546 11 276 1.6 3.2 0.00 0.00 0.00 59 1009.2
20260507003034 11 257 0.0 0.0 0.00 0.00 0.00 59 1009.3
20260507002539 11 278 0.0 0.0 0.00 0.00 0.00 58 1009.5
20260507002041 11 278 0.0 0.0 0.00 0.00 0.00 57 1009.4
20260507001528 11 278 0.0 1.6 0.00 0.00 0.00 56 1009.5
20260507001036 11 278 0.0 1.6 0.00 0.00 0.00 55 1009.5
20260507000539 11 278 0.0 1.6 0.00 0.00 0.00 54 1009.5
20260507000051 12 278 0.0 1.6 0.00 0.00 0.00 54 1009.5
20260506235543 12 278 0.0 0.0 0.00 0.00 0.00 53 1009.4
20260506235041 12 41 0.0 0.0 0.00 0.00 0.00 54 1009.6
20260506234542 12 41 0.0 0.0 0.00 0.00 0.00 53 1009.6
20260506234023 12 41 0.0 0.0 0.00 0.00 0.00 53 1009.6
20260506233527 12 41 0.0 3.2 0.00 0.00 0.00 52 1009.6
20260506233037 12 41 0.0 3.2 0.00 0.00 0.00 52 1009.6
20260506232559 12 56 0.0 1.6 0.00 0.00 0.00 52 1009.5
20260506232042 12 72 0.0 1.6 0.00 0.00 0.00 52 1009.5
20260506231546 12 72 0.0 4.8 0.00 0.00 0.00 52 1009.5
20260506231030 12 61 0.0 4.8 0.00 0.00 0.00 52 1009.6
20260506230527 12 78 0.0 1.6 0.00 0.00 0.00 52 1009.5
20260506230045 12 72 0.0 1.6 0.00 0.00 0.00 52 1009.5
20260506225537 12 72 0.0 1.6 0.00 0.00 0.00 53 1009.5
20260506225036 12 71 0.0 1.6 0.00 0.00 0.00 54 1009.5
20260506224522 12 76 0.0 12.9 0.00 0.00 0.00 55 1009.5
20260506224046 12 84 0.0 12.9 0.00 0.00 0.00 55 1009.6
20260506223543 13 64 0.0 6.4 0.00 0.00 0.00 51 1009.6
20260506223047 13 263 0.0 0.0 0.00 0.00 0.00 50 1009.5
20260506222526 13 263 0.0 0.0 0.00 0.00 0.00 50 1009.5
20260506222034 13 263 0.0 1.6 0.00 0.00 0.00 50 1009.5
20260506221520 13 263 0.0 3.2 0.00 0.00 0.00 51 1009.4
20260506221039 13 263 0.0 3.2 0.00 0.00 0.00 52 1009.5
20260506220533 13 251 0.0 1.6 0.00 0.00 0.00 55 1009.5
20260506215527 13 280 1.6 3.2 0.00 0.00 0.00 57 1009.6
20260506215040 13 278 0.0 1.6 0.00 0.00 0.00 54 1009.6
20260506214546 13 278 0.0 1.6 0.00 0.00 0.00 53 1009.6
20260506214032 13 278 0.0 1.6 0.00 0.00 0.00 51 1009.6
20260506213526 14 278 1.6 1.6 0.00 0.00 0.00 49 1009.6
20260506213028 14 278 0.0 1.6 0.00 0.00 0.00 47 1009.7
20260506212543 15 278 0.0 3.2 0.00 0.00 0.00 47 1009.7
20260506212021 15 264 1.6 3.2 0.00 0.00 0.00 46 1009.7
20260506211521 15 254 1.6 4.8 0.00 0.00 0.00 46 1009.6
20260506211029 15 246 3.2 4.8 0.00 0.00 0.00 47 1009.5
20260506210528 15 251 1.6 3.2 0.00 0.00 0.00 47 1009.5
20260506210046 15 245 0.0 3.2 0.00 0.00 0.00 46 1009.4
20260506205535 15 250 1.6 3.2 0.00 0.00 0.00 46 1009.4
20260506205033 15 247 0.0 0.0 0.00 0.00 0.00 45 1009.4
20260506204541 15 276 0.0 0.0 0.00 0.00 0.00 44 1009.3
20260506204021 15 276 0.0 0.0 0.00 0.00 0.00 44 1009.3
20260506203554 15 276 0.0 0.0 0.00 0.00 0.00 44 1009.2
20260506203022 15 276 0.0 0.0 0.00 0.00 0.00 44 1009.2
20260506202558 15 276 0.0 0.0 0.00 0.00 0.00 43 1009.2
20260506202028 16 276 0.0 1.6 0.00 0.00 0.00 42 1009.2
20260506201546 16 276 0.0 1.6 0.00 0.00 0.00 42 1009.1
20260506201043 16 276 0.0 1.6 0.00 0.00 0.00 41 1009.1
20260506200604 16 276 0.0 1.6 0.00 0.00 0.00 41 1009.0
20260506200106 16 276 0.0 3.2 0.00 0.00 0.00 40 1009.0
20260506195528 16 276 0.0 3.2 0.00 0.00 0.00 40 1009.0
20260506195023 17 282 1.6 8.0 0.00 0.00 0.00 38 1009.0
20260506194525 17 282 4.8 8.0 0.00 0.00 0.00 37 1008.9
20260506194035 17 259 4.8 6.4 0.00 0.00 0.00 36 1008.9
20260506193522 17 277 6.4 6.4 0.00 0.00 0.00 36 1008.8
20260506193023 18 276 4.8 6.4 0.00 0.00 0.00 35 1008.8
20260506192539 18 286 4.8 6.4 0.00 0.00 0.00 35 1008.8
20260506192040 18 276 3.2 4.8 0.00 0.00 0.00 34 1008.8
20260506191530 18 281 1.6 9.7 0.00 0.00 0.00 34 1008.8
20260506191043 19 276 3.2 9.7 0.00 0.00 0.00 33 1008.8
20260506190544 19 250 4.8 6.4 0.00 0.00 0.00 32 1008.7
20260506190046 19 252 1.6 4.8 0.00 0.00 0.00 30 1008.7
20260506185528 20 271 0.0 4.8 0.00 0.00 0.00 32 1008.7
20260506185036 20 284 3.2 4.8 0.00 0.00 0.00 31 1008.7
20260506184525 20 284 0.0 4.8 0.00 0.00 0.00 31 1008.7
20260506184025 20 309 3.2 6.4 0.00 0.00 0.00 29 1008.7
20260506183539 20 306 1.6 6.4 0.00 0.00 0.00 30 1008.7
20260506183025 21 290 3.2 6.4 0.00 0.00 0.00 29 1008.7
20260506182528 21 314 3.2 6.4 0.00 0.00 0.00 28 1008.7
20260506182034 21 319 0.0 0.0 0.00 0.00 0.00 27 1008.7
20260506181537 21 321 0.0 3.2 0.00 0.00 0.00 28 1008.7
20260506181044 21 354 0.0 3.2 0.00 0.00 0.00 28 1008.7
20260506180546 21 16 0.0 1.6 0.00 0.00 0.00 28 1008.7
20260506180108 21 46 0.0 3.2 0.00 0.00 0.00 27 1008.8
20260506175535 21 278 0.0 3.2 0.00 0.00 0.00 27 1008.7
20260506175046 21 303 0.0 4.8 0.00 0.00 0.00 27 1008.8
20260506174525 21 352 0.0 4.8 0.00 0.00 0.00 27 1008.9
20260506174041 21 293 0.0 4.8 0.00 0.00 0.00 27 1008.9
20260506173532 21 301 0.0 4.8 0.00 0.00 0.00 27 1008.9
20260506173022 21 297 0.0 9.7 0.00 0.00 0.00 27 1008.9
20260506172539 21 309 6.4 9.7 0.00 0.00 0.00 27 1009.0
20260506172024 21 314 3.2 6.4 0.00 0.00 0.00 27 1009.0
20260506171554 21 255 0.0 8.0 0.00 0.00 0.00 28 1008.9
20260506171047 20 252 4.8 9.7 0.00 0.00 0.00 27 1008.9
20260506170521 20 274 4.8 11.3 0.00 0.00 0.00 28 1009.0
20260506170046 20 295 1.6 11.3 0.00 0.00 0.00 30 1009.0
20260506165532 20 301 6.4 9.7 0.00 0.00 0.00 29 1008.9
20260506165027 20 281 1.6 8.0 0.00 0.00 0.00 29 1009.0
20260506164541 20 276 3.2 6.4 0.00 0.00 0.00 29 1009.1
20260506164023 20 315 3.2 8.0 0.00 0.00 0.00 28 1009.1
20260506163525 20 307 6.4 12.9 0.00 0.00 0.00 28 1009.1
20260506163042 21 283 11.3 12.9 0.00 0.00 0.00 27 1009.1
20260506162549 21 253 6.4 9.7 0.00 0.00 0.00 26 1009.1
20260506162041 22 259 0.0 8.0 0.00 0.00 0.00 25 1009.1
20260506161603 22 222 0.0 8.0 0.00 0.00 0.00 25 1009.1
20260506161021 22 125 0.0 1.6 0.00 0.00 0.00 26 1009.2
20260506160547 21 133 0.0 0.0 0.00 0.00 0.00 26 1009.2
20260506160106 21 328 0.0 3.2 0.00 0.00 0.00 27 1009.3
20260506155546 21 256 0.0 6.4 0.00 0.00 0.00 27 1009.3
20260506155050 20 218 1.6 9.7 0.00 0.00 0.00 28 1009.3
20260506154605 20 155 8.0 9.7 0.00 0.00 0.00 28 1009.4
20260506154041 20 98 0.0 6.4 0.00 0.00 0.00 27 1009.4
20260506153529 20 114 1.6 9.7 0.00 0.00 0.00 27 1009.4
20260506153028 20 83 3.2 14.5 0.00 0.00 0.00 28 1009.5
20260506152542 20 96 9.7 14.5 0.00 0.00 0.00 28 1009.5
20260506152037 20 112 1.6 8.0 0.00 0.00 0.00 28 1009.5
20260506151539 20 81 6.4 8.0 0.00 0.00 0.00 28 1009.5
20260506151023 20 50 1.6 9.7 0.00 0.00 0.00 29 1009.5
20260506150532 20 95 6.4 9.7 0.00 0.00 0.00 29 1009.6
20260506150105 20 53 1.6 9.7 0.00 0.00 0.00 29 1009.6
20260506145544 20 57 3.2 6.4 0.00 0.00 0.00 30 1009.7
20260506145048 20 101 1.6 9.7 0.00 0.00 0.00 30 1009.8
20260506144535 20 63 1.6 9.7 0.00 0.00 0.00 30 1009.9
20260506144044 20 39 4.8 8.0 0.00 0.00 0.00 30 1010.0
20260506143531 20 31 1.6 8.0 0.00 0.00 0.00 30 1010.0
20260506143024 20 349 3.2 8.0 0.00 0.00 0.00 30 1010.1
20260506142529 20 315 1.6 8.0 0.00 0.00 0.00 32 1010.2
20260506142033 19 319 0.0 3.2 0.00 0.00 0.00 31 1010.2
20260506141544 19 1 0.0 9.7 0.00 0.00 0.00 32 1010.4
20260506141043 19 56 0.0 9.7 0.00 0.00 0.00 32 1010.4
20260506140521 19 61 3.2 9.7 0.00 0.00 0.00 32 1010.5
20260506135533 19 33 0.0 6.4 0.00 0.00 0.00 31 1010.5
20260506135021 19 72 0.0 8.0 0.00 0.00 0.00 31 1010.6
20260506134525 20 315 0.0 11.3 0.00 0.00 0.00 31 1010.6
20260506134036 20 292 3.2 11.3 0.00 0.00 0.00 30 1010.7
20260506133527 20 323 0.0 9.7 0.00 0.00 0.00 30 1010.7
20260506133038 20 321 1.6 11.3 0.00 0.00 0.00 30 1010.8
20260506132544 20 319 3.2 11.3 0.00 0.00 0.00 31 1010.7
20260506132022 20 9 6.4 9.7 0.00 0.00 0.00 30 1010.8
20260506131522 20 331 3.2 8.0 0.00 0.00 0.00 31 1010.8
20260506131030 19 239 0.0 9.7 0.00 0.00 0.00 32 1010.9
20260506130530 18 113 6.4 16.1 0.00 0.00 0.00 33 1010.9
20260506130100 19 79 9.7 16.1 0.00 0.00 0.00 32 1011.0
20260506125609 19 85 0.0 9.7 0.00 0.00 0.00 33 1011.0
20260506125046 20 288 4.8 9.7 0.00 0.00 0.00 31 1011.0
20260506124534 20 307 1.6 9.7 0.00 0.00 0.00 32 1011.1
20260506124026 19 351 0.0 11.3 0.00 0.00 0.00 33 1011.2